TimeCDT,TemperatureF,Dew PointF,Humidity,Sea Level PressureIn,VisibilityMPH,Wind Direction,Wind SpeedMPH,Gust SpeedMPH,PrecipitationIn,Events,Conditions,WindDirDegrees,DateUTC
12:15 AM,69.1,64.9,87,30.07,10.0,Calm,Calm,-,N/A,,Clear,0,2013-07-11 05:15:00
12:35 AM,68.9,65.1,88,30.07,10.0,Calm,Calm,-,N/A,,Clear,0,2013-07-11 05:35:00
12:55 AM,68.2,65.3,90,30.07,10.0,Calm,Calm,-,N/A,,Clear,0,2013-07-11 05:55:00
1:15 AM,67.6,65.3,92,30.07,10.0,Calm,Calm,-,N/A,,Clear,0,2013-07-11 06:15:00
1:35 AM,67.5,65.3,93,30.07,10.0,Calm,Calm,-,N/A,,Clear,0,2013-07-11 06:35:00
1:55 AM,67.3,64.8,92,30.07,10.0,Calm,Calm,-,N/A,,Clear,0,2013-07-11 06:55:00
2:15 AM,67.1,64.8,92,30.07,10.0,Calm,Calm,-,N/A,,Clear,0,2013-07-11 07:15:00
2:35 AM,66.6,64.8,94,30.07,10.0,Calm,Calm,-,N/A,,Clear,0,2013-07-11 07:35:00
2:55 AM,66.4,64.8,95,30.08,10.0,Calm,Calm,-,N/A,,Clear,0,2013-07-11 07:55:00
3:15 AM,65.8,64.4,95,30.08,10.0,Calm,Calm,-,N/A,,Clear,0,2013-07-11 08:15:00
3:35 AM,65.3,64.0,96,30.07,10.0,Calm,Calm,-,N/A,,Clear,0,2013-07-11 08:35:00
3:55 AM,65.3,64.4,97,30.07,10.0,Calm,Calm,-,N/A,,Clear,0,2013-07-11 08:55:00
4:15 AM,65.3,64.0,96,30.07,10.0,Calm,Calm,-,N/A,,Clear,0,2013-07-11 09:15:00
4:35 AM,65.3,63.5,94,30.06,10.0,Calm,Calm,-,N/A,,Clear,0,2013-07-11 09:35:00
4:55 AM,65.3,62.6,91,30.06,10.0,Calm,Calm,-,N/A,,Clear,0,2013-07-11 09:55:00
5:15 AM,65.3,62.1,89,30.07,10.0,Calm,Calm,-,N/A,,Clear,0,2013-07-11 10:15:00
5:35 AM,65.3,61.9,89,30.08,10.0,Calm,Calm,-,N/A,,Clear,0,2013-07-11 10:35:00
5:55 AM,63.9,61.7,93,30.08,10.0,Calm,Calm,-,N/A,,Clear,0,2013-07-11 10:55:00
6:15 AM,63.5,61.7,94,30.08,10.0,Calm,Calm,-,N/A,,Clear,0,2013-07-11 11:15:00
6:35 AM,63.5,61.7,94,30.09,10.0,Calm,Calm,-,N/A,,Clear,0,2013-07-11 11:35:00
6:55 AM,64.8,61.5,89,30.08,10.0,Calm,Calm,-,N/A,,Clear,0,2013-07-11 11:55:00
7:15 AM,68.2,59.4,73,30.07,10.0,ESE,3.5,-,N/A,,Clear,110,2013-07-11 12:15:00
7:35 AM,68.9,60.3,74,30.09,10.0,SE,5.8,-,N/A,,Clear,130,2013-07-11 12:35:00
7:55 AM,69.4,60.4,73,30.09,10.0,SE,5.8,-,N/A,,Clear,130,2013-07-11 12:55:00
8:15 AM,70.7,59.5,68,30.09,10.0,SE,8.1,-,N/A,,Clear,130,2013-07-11 13:15:00
8:35 AM,71.8,59.2,64,30.09,10.0,SE,8.1,-,N/A,,Clear,130,2013-07-11 13:35:00
8:55 AM,73.0,59.7,63,30.10,10.0,SE,6.9,-,N/A,,Clear,130,2013-07-11 13:55:00
9:15 AM,74.5,59.9,60,30.10,10.0,SE,9.2,-,N/A,,Scattered Clouds,130,2013-07-11 14:15:00
9:35 AM,75.6,60.1,59,30.10,10.0,ENE,10.4,-,N/A,,Scattered Clouds,60,2013-07-11 14:35:00
9:55 AM,76.1,60.4,58,30.11,10.0,ENE,10.4,-,N/A,,Scattered Clouds,60,2013-07-11 14:55:00
10:15 AM,77.0,60.6,57,30.11,10.0,SSE,10.4,-,N/A,,Scattered Clouds,160,2013-07-11 15:15:00
10:35 AM,77.9,59.7,53,30.11,10.0,SSE,9.2,-,N/A,,Clear,160,2013-07-11 15:35:00
10:55 AM,77.9,58.8,52,30.10,10.0,SSE,11.5,18.4,N/A,,Clear,150,2013-07-11 15:55:00
11:15 AM,78.8,59.2,51,30.11,10.0,SE,12.7,-,N/A,,Clear,140,2013-07-11 16:15:00
11:35 AM,79.3,59.2,50,30.10,10.0,SE,13.8,18.4,N/A,,Clear,130,2013-07-11 16:35:00
11:55 AM,79.7,59.5,50,30.10,10.0,SE,12.7,-,N/A,,Clear,130,2013-07-11 16:55:00
12:15 PM,80.6,59.2,48,30.09,10.0,SSE,10.4,-,N/A,,Clear,150,2013-07-11 17:15:00
12:35 PM,80.8,58.5,46,30.09,10.0,SE,11.5,-,N/A,,Clear,140,2013-07-11 17:35:00
12:55 PM,80.8,58.8,47,30.08,10.0,SSE,12.7,-,N/A,,Clear,150,2013-07-11 17:55:00
1:15 PM,81.3,60.3,49,30.06,10.0,SE,12.7,19.6,N/A,,Clear,130,2013-07-11 18:15:00
1:35 PM,81.9,60.8,49,30.06,10.0,SE,12.7,17.3,N/A,,Clear,140,2013-07-11 18:35:00
1:55 PM,82.6,60.8,48,30.05,10.0,SSE,10.4,16.1,N/A,,Clear,150,2013-07-11 18:55:00
2:15 PM,82.4,60.8,48,30.06,10.0,SSE,8.1,-,N/A,,Clear,150,2013-07-11 19:15:00
2:35 PM,82.9,61.0,47,30.05,10.0,SE,13.8,17.3,N/A,,Clear,140,2013-07-11 19:35:00
2:55 PM,83.1,60.8,47,30.05,10.0,SE,12.7,17.3,N/A,,Clear,140,2013-07-11 19:55:00
3:15 PM,83.7,61.2,46,30.04,10.0,SE,11.5,-,N/A,,Clear,140,2013-07-11 20:15:00
3:35 PM,83.8,60.8,46,30.04,10.0,ESE,5.8,10.4,N/A,,Clear,120,2013-07-11 20:35:00
3:55 PM,84.4,61.5,46,30.04,10.0,SE,11.5,17.3,N/A,,Clear,130,2013-07-11 20:55:00
4:15 PM,84.2,61.7,47,30.03,10.0,SE,10.4,17.3,N/A,,Clear,130,2013-07-11 21:15:00
4:35 PM,84.7,62.1,46,30.02,10.0,SE,10.4,17.3,N/A,,Clear,130,2013-07-11 21:35:00
4:55 PM,84.2,61.9,47,30.02,10.0,ESE,11.5,16.1,N/A,,Clear,120,2013-07-11 21:55:00
5:15 PM,84.9,61.9,46,30.01,10.0,SE,11.5,17.3,N/A,,Clear,140,2013-07-11 22:15:00
5:35 PM,84.2,63.1,49,30.01,10.0,ESE,9.2,17.3,N/A,,Clear,110,2013-07-11 22:35:00
5:55 PM,84.2,62.2,47,30.00,10.0,SE,13.8,-,N/A,,Clear,130,2013-07-11 22:55:00
6:15 PM,84.4,62.2,47,29.99,10.0,SE,10.4,-,N/A,,Clear,140,2013-07-11 23:15:00
6:35 PM,84.2,62.2,47,29.99,10.0,SSE,10.4,17.3,N/A,,Clear,150,2013-07-11 23:35:00
6:55 PM,83.8,62.6,49,29.98,10.0,SE,10.4,-,N/A,,Clear,140,2013-07-11 23:55:00
7:15 PM,82.9,63.7,52,29.98,10.0,SE,10.4,-,N/A,,Clear,130,2013-07-12 00:15:00
7:35 PM,82.4,63.1,52,29.98,10.0,SE,10.4,-,N/A,,Clear,130,2013-07-12 00:35:00
7:55 PM,81.5,63.5,54,29.98,10.0,SE,8.1,-,N/A,,Clear,140,2013-07-12 00:55:00
8:15 PM,80.6,63.7,56,29.98,10.0,SE,5.8,-,N/A,,Clear,130,2013-07-12 01:15:00
8:35 PM,79.3,63.5,58,29.98,10.0,SE,5.8,-,N/A,,Clear,130,2013-07-12 01:35:00
8:55 PM,78.6,63.5,60,29.97,10.0,SE,5.8,-,N/A,,Clear,130,2013-07-12 01:55:00
9:15 PM,77.9,63.7,61,29.98,10.0,SE,4.6,-,N/A,,Clear,130,2013-07-12 02:15:00
9:35 PM,77.0,63.5,63,29.98,10.0,SE,4.6,-,N/A,,Clear,130,2013-07-12 02:35:00
9:55 PM,76.6,62.6,62,29.98,10.0,SE,5.8,-,N/A,,Clear,130,2013-07-12 02:55:00
10:15 PM,75.7,62.2,63,29.99,10.0,SE,5.8,-,N/A,,Clear,130,2013-07-12 03:15:00
10:35 PM,74.5,62.1,65,30.00,10.0,SE,5.8,-,N/A,,Clear,130,2013-07-12 03:35:00
10:55 PM,74.3,62.1,65,30.00,10.0,SE,5.8,-,N/A,,Clear,130,2013-07-12 03:55:00
11:15 PM,73.8,62.1,67,30.00,10.0,SE,5.8,-,N/A,,Clear,130,2013-07-12 04:15:00
11:35 PM,72.9,62.6,70,30.00,10.0,SE,5.8,-,N/A,,Clear,130,2013-07-12 04:35:00
11:55 PM,72.1,62.6,72,30.01,10.0,SE,6.9,-,N/A,,Clear,130,2013-07-12 04:55:00